[[{"header":{"parameterUnit":"m.s-1","parameterCategory":1,"la1":30.2991,"la2":30.254,"lo1":-89.0895,"lo2":-89.0444,"dy":0.0017,"dx":0.0017,"nx":28,"ny":28,"refTime":"2023-10-12T03:00:00:Z","depth":0,"parameterNumber":2,"parameterNumberName":"U-component_of_WINDS"},"data":[0,0,0,0,0,0,0,0,0,0,0,0,0,0,0,0,0,0,0,0,0,0,0,0,0,0,0,0,0,0,0,0,0,0,0,0,0,0,0,0,0,0,0,0,0,0,0,0,0,0,0,0,0,0,0,0,0,0,-5.4662,-5.4664,0,-5.4909,-5.4912,-5.4914,-5.4859,-5.4855,-5.485,-5.4846,-5.5101,-5.5112,-5.5123,0,0,0,0,0,0,0,0,0,0,0,0,0,-5.4144,-5.4154,-5.4661,-5.4664,-5.4668,-5.4908,-5.4912,-5.4915,-5.486,-5.4855,-5.4849,-5.4844,-5.5098,-5.5111,-5.5124,0,0,0,0,0,0,0,0,0,0,0,0,0,-5.4378,-5.4157,-5.4661,-5.4669,-5.4672,-5.4908,-5.4912,-5.4916,-5.4861,-5.4854,-5.4847,-5.4841,-5.5093,-5.5109,-5.5126,-5.5369,0,0,-5.5177,-5.5184,0,0,0,0,0,0,0,0,-5.4364,-5.4397,-5.4665,-5.4669,-5.4673,-5.4846,-5.4823,-5.5068,-5.4863,-5.479,-5.4846,-5.4838,-5.5022,-5.5044,-5.5106,-5.5381,-5.5392,-5.5178,-5.5189,-5.5196,-5.52,0,0,0,0,0,0,0,-5.4348,-5.4386,-5.4759,-5.4669,-5.4674,-5.4661,-5.4687,-5.4869,-5.4942,-5.4796,-5.4792,-5.4822,-5.5023,-5.509,-5.5112,-5.5396,-5.5178,-5.5193,-5.5203,-5.521,-5.5884,-5.5892,0,0,0,0,0,0,-5.4328,-5.4373,-5.4751,-5.4767,-5.4498,-5.4676,-5.4705,-5.4798,-5.494,-5.4955,-5.4828,-5.4819,-5.5065,-5.5092,-5.512,-5.5416,-5.5196,-5.5211,-5.5221,-5.5877,-5.5886,-5.5895,0,0,0,0,0,0,-5.4317,-5.4363,-5.4741,-5.4569,-5.4616,-5.4693,-5.4797,-5.4806,-5.4873,-5.4964,-5.4977,-5.4883,-5.506,-5.5097,-5.5308,-5.5424,-5.5219,-5.5234,-5.5867,-5.588,-5.589,-5.6009,0,0,0,0,0,0,-5.4303,-5.4359,-5.4452,-5.4571,-5.4626,-5.4925,-5.4804,-5.4816,-5.4902,-5.4892,-5.5019,-5.5034,-5.5058,-5.5283,-5.5324,-5.5444,-5.5247,-5.5857,-5.5873,-5.5887,-5.5995,-5.6023,-5.6048,0,0,0,0,0,-5.4284,-5.4475,-5.4457,-5.4503,-5.4743,-5.4931,-5.4962,-5.4986,-5.4911,-5.5006,-5.5064,-5.503,-5.5404,-5.5305,-5.5351,-5.5477,-5.585,-5.5868,-5.5886,-5.5983,-5.6018,-5.6047,0,0,0,0,0,0,-5.4368,-5.4491,-5.4472,-5.4707,-5.4809,-5.4922,-5.5041,-5.5021,-5.5147,-5.5133,-5.5156,-5.5186,-5.5401,-5.546,-5.5347,-5.5721,-5.5617,-5.5645,-5.5675,-5.5709,-5.5735,-5.5717,-5.5261,0,0,0,0,0,-5.4413,-5.4555,-5.4655,-5.4853,-5.4905,-5.4965,-5.5047,-5.5056,-5.5164,-5.5207,-5.5281,-5.5387,-5.5528,-5.5621,-5.5756,-5.6002,-5.6031,-5.6112,-5.6138,-5.6159,-5.6184,-5.632,-5.6358,-5.5953,-5.5953,-5.5953,0,0,-5.4509,-5.4594,-5.4682,-5.4872,-5.4952,-5.51,-5.5001,-5.5161,-5.5272,-5.5231,-5.5436,-5.5494,-5.5613,-5.5843,-5.5948,-5.5899,-5.6301,-5.6182,-5.6198,-5.6211,-5.6343,-5.6381,-5.6415,-5.5965,-5.5963,-5.5961,0,0,-5.476,-5.4837,-5.5012,-5.5094,-5.5217,-5.5255,-5.5297,-5.5413,-5.545,-5.5655,-5.5628,-5.576,-5.6003,-5.609,-5.6166,-5.6451,-5.6424,-5.6494,-5.6632,-5.6765,-5.6797,-5.6826,-5.693,-5.6966,-5.6517,-5.6518,-5.6518,0,-5.4864,-5.5085,-5.5104,-5.5267,-5.5352,-5.5321,-5.5499,-5.5578,-5.5739,-5.5799,-5.5741,-5.6046,-5.6124,-5.6376,-5.6445,-5.6507,-5.6557,-5.6481,-5.6791,-5.682,-5.6847,-5.6946,-5.6985,-5.6526,-5.6525,-5.6524,-5.6523,0,-5.5208,-5.5362,-5.5488,-5.5644,-5.5743,-5.5912,-5.5958,-5.6056,-5.6056,-5.6101,-5.6311,-5.6404,-5.6558,-5.6618,-5.662,-5.6871,-5.6836,-5.6784,-5.6681,-5.6893,-5.6987,-5.7025,-5.6537,-5.6534,-5.6532,-5.653,0,0,-5.552,-5.5684,-5.573,-5.5802,-5.5935,-5.6054,-5.6223,-5.6373,-5.6458,-5.657,-5.6713,-5.692,-5.6873,-5.6959,-5.697,-5.7087,-5.7309,-5.7021,-5.7024,-5.7074,-5.7594,-5.7634,-5.7678,-5.7291,-5.7299,-5.7304,-5.7585,0,-5.5784,-5.6081,-5.6104,-5.6372,-5.6516,-5.6488,-5.6635,-5.6734,-5.678,-5.6909,-5.696,-5.7107,-5.7032,-5.7085,-5.7198,-5.7258,-5.7415,-5.7238,-5.7427,-5.7434,-5.7401,-5.7727,-5.777,-5.803,-5.7621,-5.7628,-5.7632,0,-5.6133,-5.6256,-5.6539,-5.6653,-5.6714,-5.6846,-5.6987,-5.7109,-5.7221,-5.7246,-5.7343,-5.7339,-5.7513,-5.7401,-5.7643,-5.7523,-5.7601,-5.7642,-5.7653,-5.7674,-5.7548,-5.7759,-5.8113,-5.8154,-5.769,-5.7685,-5.7681,0,-5.6336,-5.6571,-5.6771,-5.6833,-5.697,-5.7064,-5.7126,-5.723,-5.732,-5.7442,-5.7501,-5.7643,-5.7721,-5.7831,-5.7866,-5.778,-5.8108,-5.7998,-5.8136,-5.8136,-5.8208,-5.8204,-5.8583,-5.8255,-5.8254,-5.8253,-5.8252,0,-5.6631,-5.6806,-5.6864,-5.6988,-5.7183,-5.7207,-5.74,-5.7456,-5.755,-5.7685,-5.7669,-5.7796,-5.7832,-5.7966,-5.7994,-5.8192,-5.8226,-5.8253,-5.8259,-5.8257,-5.8254,-5.8311,-5.8295,-5.8264,-5.8261,-5.8259,-5.8258,0,-5.6891,-5.6937,-5.7154,-5.7266,-5.7299,-5.7438,-5.7535,-5.7654,-5.7697,-5.7869,-5.791,-5.7979,-5.8136,-5.818,-5.8369,-5.8387,-5.8621,-5.8609,-5.8584,-5.8585,-5.8721,-5.8709,-5.9152,-5.9213,-5.8842,-5.8845,-5.8848,0,-5.7078,-5.7212,-5.7338,-5.7427,-5.7493,-5.7637,-5.7728,-5.7756,-5.7853,-5.799,-5.8094,-5.8248,-5.8374,-5.8626,-5.8694,-5.8838,-5.8831,-5.8977,-5.8853,-5.8847,-5.8837,-5.883,-5.8844,-5.9001,-5.9005,-5.9008,-5.9011,0,-5.7405,-5.7421,-5.7553,-5.7694,-5.7804,-5.7916,-5.8024,-5.8098,-5.8142,-5.8251,-5.8411,-5.8509,-5.8701,-5.8856,-5.9002,-5.9067,-5.9048,-5.9049,-5.9089,-5.9089,-5.907,-5.9085,-5.8651,-5.9039,-5.9036,-5.9034,-5.9033,-5.9031,-5.7636,-5.7755,-5.7863,-5.8011,-5.8095,-5.8196,-5.8315,-5.8373,-5.8507,-5.8666,-5.8674,-5.8849,-5.8958,-5.9152,-5.9225,-5.9363,-5.932,-5.9377,-5.9392,-5.9407,-5.942,-5.9046,-5.9389,-5.9388,-5.9387,-5.9387,-5.9386,0,-5.7965,-5.8033,-5.8169,-5.8321,-5.8438,-5.8407,-5.8525,-5.8626,-5.8779,-5.8882,-5.9006,-5.9191,-5.9341,-5.9421,-5.957,-5.9666,-5.9661,-5.9704,-5.9699,-5.9715,-5.9448,-5.94,-5.9706,-5.9706,-5.9706,-5.9706,-5.9706,-5.9706,-5.815,-5.835,-5.8379,-5.8621,-5.8688,-5.8858,-5.8929,-5.9023,-5.9105,-5.9312,-5.9437,-5.9487,-5.9581,-5.9738,-5.9875,-5.9894,-5.9952,-6.0001,-6.0016,-5.9766,-5.9733,-5.9702,-5.9657,-6.0012,-6.0013,-6.0272,-6.0274,-6.0276]},{"header":{"parameterUnit":"m.s-1","parameterCategory":1,"la1":30.2991,"la2":30.254,"lo1":-89.0895,"lo2":-89.0444,"dy":0.0017,"dx":0.0017,"nx":28,"ny":28,"refTime":"2023-10-12T03:00:00:Z","depth":0,"parameterNumber":3,"parameterNumberName":"V-component_of_WINDS"},"data":[0,0,0,0,0,0,0,0,0,0,0,0,0,0,0,0,0,0,0,0,0,0,0,0,0,0,0,0,0,0,0,0,0,0,0,0,0,0,0,0,0,0,0,0,0,0,0,0,0,0,0,0,0,0,0,0,0,0,-6.6951,-6.6951,0,-6.6982,-6.6983,-6.6983,-6.6892,-6.689,-6.6887,-6.6884,-6.6915,-6.6918,-6.6921,0,0,0,0,0,0,0,0,0,0,0,0,0,-6.6808,-6.6811,-6.6951,-6.6951,-6.6952,-6.6982,-6.6983,-6.6983,-6.6893,-6.689,-6.6886,-6.6883,-6.6913,-6.6917,-6.6922,0,0,0,0,0,0,0,0,0,0,0,0,0,-6.6858,-6.6812,-6.6951,-6.691,-6.6907,-6.6982,-6.6983,-6.6983,-6.6894,-6.6889,-6.6885,-6.6881,-6.6912,-6.6917,-6.6922,-6.7037,0,0,-6.6938,-6.694,0,0,0,0,0,0,0,0,-6.6855,-6.6863,-6.6916,-6.6913,-6.691,-6.6929,-6.6943,-6.7001,-6.6895,-6.6899,-6.6884,-6.6879,-6.6923,-6.6927,-6.6942,-6.7039,-6.704,-6.6938,-6.6941,-6.6943,-6.6945,0,0,0,0,0,0,0,-6.6852,-6.6861,-6.6963,-6.6917,-6.6913,-6.6889,-6.6892,-6.6954,-6.6934,-6.6898,-6.6891,-6.6897,-6.692,-6.6937,-6.6942,-6.704,-6.6938,-6.6943,-6.6946,-6.6948,-6.7231,-6.7235,0,0,0,0,0,0,-6.6854,-6.6859,-6.6962,-6.6964,-6.6872,-6.6895,-6.6898,-6.6927,-6.6933,-6.693,-6.69,-6.6892,-6.693,-6.6936,-6.6942,-6.7076,-6.6943,-6.6948,-6.6951,-6.7227,-6.7232,-6.7237,0,0,0,0,0,0,-6.6852,-6.6864,-6.6961,-6.691,-6.692,-6.6902,-6.6936,-6.693,-6.6947,-6.6934,-6.693,-6.6921,-6.6927,-6.6935,-6.7014,-6.7076,-6.695,-6.6955,-6.7221,-6.7228,-6.7235,-6.7346,0,0,0,0,0,0,-6.6848,-6.6864,-6.6909,-6.6912,-6.6924,-6.7033,-6.6939,-6.6934,-6.6956,-6.6946,-6.6953,-6.695,-6.6925,-6.7007,-6.7019,-6.7081,-6.6959,-6.7216,-6.7224,-6.7232,-6.7336,-6.7355,-6.7372,0,0,0,0,0,-6.6843,-6.6939,-6.6911,-6.6924,-6.6979,-6.7037,-6.7044,-6.7013,-6.6962,-6.7005,-6.6997,-6.695,-6.7067,-6.7016,-6.7029,-6.7093,-6.7212,-6.7222,-6.7232,-6.7329,-6.7352,-6.7371,0,0,0,0,0,0,-6.6943,-6.6938,-6.6908,-6.7008,-6.7024,-6.7022,-6.7076,-6.7039,-6.7069,-6.7058,-6.7018,-6.702,-6.7106,-6.7107,-6.705,-6.7203,-6.713,-6.7144,-6.72,-6.7222,-6.7239,-6.7236,-6.6963,0,0,0,0,0,-6.6977,-6.7025,-6.7018,-6.7106,-6.7116,-6.7095,-6.7119,-6.7094,-6.7109,-6.7115,-6.7112,-6.7127,-6.7167,-6.7194,-6.7231,-6.7336,-6.7335,-6.7387,-6.7404,-6.7419,-6.743,-6.7484,-6.7506,-6.727,-6.727,-6.727,0,0,-6.7046,-6.705,-6.7083,-6.7127,-6.7136,-6.7186,-6.7101,-6.7158,-6.7194,-6.7123,-6.7197,-6.7196,-6.721,-6.7302,-6.7343,-6.7306,-6.7495,-6.7431,-6.7443,-6.7447,-6.7497,-6.7519,-6.7539,-6.7277,-6.7276,-6.7274,0,0,-6.7199,-6.7207,-6.7281,-6.7292,-6.7307,-6.7292,-6.731,-6.7314,-6.731,-6.7384,-6.7331,-6.7373,-6.7443,-6.7455,-6.747,-6.7626,-6.7583,-6.7639,-6.773,-6.7783,-6.7802,-6.7818,-6.7872,-6.7892,-6.765,-6.7651,-6.7651,0,-6.7284,-6.7358,-6.7323,-6.7384,-6.7403,-6.7341,-6.7415,-6.7427,-6.7453,-6.7468,-6.7426,-6.7512,-6.7517,-6.761,-6.7648,-6.7663,-6.7681,-6.7637,-6.7802,-6.7818,-6.7833,-6.7884,-6.7905,-6.7657,-6.7656,-6.7656,-6.7655,0,-6.746,-6.7512,-6.757,-6.7597,-6.7623,-6.769,-6.7664,-6.7695,-6.7667,-6.7656,-6.7731,-6.7735,-6.777,-6.779,-6.7764,-6.7879,-6.7856,-6.7809,-6.7735,-6.7863,-6.791,-6.7929,-6.7667,-6.7664,-6.7662,-6.7661,0,0,-6.7677,-6.7683,-6.7705,-6.7716,-6.7727,-6.7766,-6.7829,-6.7864,-6.789,-6.791,-6.796,-6.8021,-6.7977,-6.7994,-6.7968,-6.8015,-6.8136,-6.7962,-6.7962,-6.7993,-6.8262,-6.8296,-6.832,-6.8108,-6.8112,-6.8115,-6.826,0,-6.7826,-6.7935,-6.7905,-6.8013,-6.8059,-6.8,-6.8054,-6.8067,-6.8058,-6.8095,-6.8085,-6.8128,-6.8068,-6.8078,-6.8121,-6.8112,-6.8189,-6.8101,-6.8153,-6.8156,-6.8151,-6.8344,-6.8381,-6.8518,-6.8279,-6.8282,-6.8284,0,-6.8015,-6.8042,-6.8155,-6.8157,-6.8175,-6.8225,-6.8253,-6.829,-6.8302,-6.8292,-6.8311,-6.8275,-6.8335,-6.8262,-6.8343,-6.8284,-6.8303,-6.8302,-6.8306,-6.8309,-6.8227,-6.8351,-6.8562,-6.8582,-6.8313,-6.8311,-6.8308,0,-6.816,-6.8225,-6.83,-6.8311,-6.8316,-6.8352,-6.8355,-6.8363,-6.8386,-6.841,-6.8424,-6.8455,-6.8472,-6.8497,-6.847,-6.8419,-6.8555,-6.8479,-6.8547,-6.8548,-6.8578,-6.8576,-6.8793,-6.8593,-6.8592,-6.8592,-6.8592,0,-6.833,-6.84,-6.8365,-6.8411,-6.8488,-6.8452,-6.8529,-6.8526,-6.8533,-6.8576,-6.8528,-6.8569,-6.8531,-6.8569,-6.8548,-6.8618,-6.8627,-6.8619,-6.8613,-6.8623,-6.8624,-6.8635,-6.8624,-6.8597,-6.8596,-6.8595,-6.8594,0,-6.8505,-6.8484,-6.8562,-6.856,-6.8561,-6.8617,-6.8615,-6.8657,-6.8644,-6.8699,-6.871,-6.869,-6.8732,-6.8708,-6.8751,-6.8736,-6.8827,-6.8808,-6.8823,-6.8817,-6.8887,-6.888,-6.9117,-6.9146,-6.8928,-6.893,-6.8932,0,-6.8614,-6.8667,-6.867,-6.8696,-6.8703,-6.8745,-6.8767,-6.8733,-6.8758,-6.8775,-6.8815,-6.8852,-6.8881,-6.895,-6.8939,-6.8971,-6.8951,-6.9032,-6.8956,-6.8964,-6.8951,-6.8948,-6.8952,-6.9047,-6.905,-6.9052,-6.9054,0,-6.8809,-6.8796,-6.883,-6.886,-6.8888,-6.8911,-6.8929,-6.8952,-6.8919,-6.8949,-6.8991,-6.9013,-6.9056,-6.9094,-6.9121,-6.9123,-6.9083,-6.9078,-6.9095,-6.9106,-6.9112,-6.9108,-6.8864,-6.9072,-6.9071,-6.9069,-6.9068,-6.9067,-6.8953,-6.8997,-6.9005,-6.9045,-6.9055,-6.9072,-6.9111,-6.9103,-6.9138,-6.9171,-6.9148,-6.9198,-6.9207,-6.9239,-6.9246,-6.9284,-6.9251,-6.9276,-6.9282,-6.9289,-6.9298,-6.9107,-6.9288,-6.9288,-6.9287,-6.9287,-6.9286,0,-6.9144,-6.9147,-6.9183,-6.921,-6.924,-6.92,-6.9217,-6.9245,-6.929,-6.9302,-6.933,-6.9378,-6.9414,-6.9405,-6.9437,-6.9468,-6.945,-6.9478,-6.9474,-6.9475,-6.9326,-6.9307,-6.9492,-6.9492,-6.9491,-6.9491,-6.9491,-6.9491,-6.9247,-6.9318,-6.9306,-6.9381,-6.9382,-6.9431,-6.9444,-6.9459,-6.9468,-6.9524,-6.9553,-6.9548,-6.9551,-6.9582,-6.9613,-6.9609,-6.9622,-6.9656,-6.9646,-6.9506,-6.9486,-6.9467,-6.9449,-6.966,-6.966,-6.9792,-6.9793,-6.9794]}]]